Location: Lourdes
(43.1000°N, 0.0500°W)
Time: 06:00:19
(UTC+00:00)

Cosmos 1125 Rocket - Pass Details

Date: 30 November 2020
Orbit: 757 x 780 km, 74.0° (Epoch: 27 January)

Event Time Altitude Azimuth Distance (km) Brightness Sun altitude
Rises 16:49:31 0° 336° (NNW) 3,225 6.7 -4.5°
Reaches altitude 10° 16:51:54 10° 333° (NNW) 2,297 6.0 -4.9°
Maximum altitude 16:57:01 60° 254° (WSW) 874 4.2 -5.8°
Drops below altitude 10° 17:02:07 10° 176° (S) 2,293 6.2 -6.6°
Sets 17:04:31 0° 172° (S) 3,218 6.9 -7.0°
